RH
30 27 27 24 22 24 26 25 25 27 28 30 28 25 27 31 35 38 43 46 43 40 39 40 41 44 49 49 47 49 51 49 48 46 46 44 40 44 49 50 53 56 59
34 32 28 28 24 21 21 25 27 27 27 27 29 28 25 27 35 37 39 44 44 41 39 39 40 43 42 47 50 51 53 53 51 51 49 47 44 43 45 45 51 55 58
38 32 31 30 28 25 24 26 27 28 28 25 24 27 26 25 29 36 37 40 44 42 39 38 38 39 40 46 48 50 54 54 51 51 53 51 46 45 47 49 53 54 54
40 36 33 32 29 29 28 28 29 30 31 29 24 22 25 23 22 31 35 38 40 41 38 38 39 39 41 44 47 48 55 59 58 54 55 51 48 49 50 54 58 58 59
43 39 36 33 33 33 31 29 32 32 34 36 32 24 23 26 19 24 29 34 36 38 37 35 37 41 43 46 49 52 57 62 63 61 59 59 61 52 50 57 59 61 61
40 40 41 38 36 35 33 31 34 36 36 34 32 25 22 25 20 20 26 31 33 36 36 36 38 41 45 47 49 52 55 63 65 67 67 67 68 59 52 54 54 58 59
34 41 41 42 39 39 38 36 36 36 40 38 36 28 20 19 19 18 21 27 31 34 36 38 41 44 42 47 53 57 58 61 68 69 67 70 71 63 57 53 55 60 65
29 38 42 41 41 45 45 42 37 37 39 40 38 33 27 18 18 20 24 28 30 35 36 37 39 43 46 49 55 60 62 66 70 72 68 71 71 74 59 53 57 56 58
27 34 39 41 45 49 48 44 51 53 47 47 49 44 34 25 21 19 23 27 29 30 33 36 39 42 46 51 59 62 65 70 73 77 71 73 68 64 64 61 58 62 61
26 33 37 37 42 46 48 52 49 54 53 55 52 48 42 37 25 21 25 29 33 35 37 40 41 41 46 50 54 59 65 74 83 77 77 76 68 67 67 64 56 57 56
31 34 38 34 40 44 43 42 45 46 49 55 57 56 50 43 40 34 23 25 28 31 36 39 40 41 46 49 56 61 59 70 87 81 82 77 69 71 64 49 50 52 48
28 31 32 30 33 36 36 37 37 46 48 49 50 51 46 43 42 41 36 35 29 30 32 33 38 41 46 54 60 64 71 78 91 81 87 81 75 76 61 52 50 46 39
26 29 34 34 34 35 35 37 41 47 50 52 52 51 54 54 47 44 42 42 39 39 41 46 46 43 45 53 57 63 67 92 96 92 83 78 78 73 61 48 48 40 30
26 31 35 37 38 39 41 44 43 43 46 47 51 58 55 56 53 46 42 47 52 60 61 65 62 67 73 71 71 71 77 69 87 89 87 76 75 72 58 48 47 35 30
24 32 37 36 37 39 39 42 44 46 47 48 46 52 58 52 43 46 50 62 70 76 73 77 78 79 86 89 98 91 94 92 83 82 83 76 79 74 54 49 44 33 31
26 26 29 32 36 36 38 39 39 40 42 41 40 40 45 44 45 55 67 73 78 80 78 80 82 84 92 93 90 85 90 97 95 91 81 79 76 65 49 47 36 31 34
28 26 28 27 33 34 37 38 38 39 34 35 37 39 41 43 46 54 62 70 76 82 79 80 84 77 82 72 75 81 85 88 98 90 75 77 69 51 47 42 33 32 28
26 26 29 29 30 34 35 36 39 39 39 38 36 40 44 47 45 45 50 59 68 79 79 81 83 81 70 69 72 76 87 95 87 76 77 65 52 50 43 35 34 29 26
37 38 36 37 36 37 38 40 40 39 39 40 40 42 44 47 45 51 64 67 76 79 77 77 76 78 73 66 74 86 79 82 73 74 61 53 56 46 38 29 30 27 23
40 38 42 45 45 45 44 45 44 44 47 48 49 52 54 56 62 72 79 84 82 99 99 87 79 78 78 78 83 90 88 67 72 62 56 54 49 39 32 28 25 26 18
47 47 50 53 51 47 46 45 48 49 54 59 60 58 62 67 70 71 80 83 86 90 98 95 88 87 88 91 95 89 80 70 60 59 55 50 42 33 29 25 23 20 18
53 53 54 52 53 53 52 52 52 53 55 57 59 62 62 64 71 79 83 90 93 90 97 97 95 97 94 91 87 82 67 61 59 56 49 42 36 30 25 22 20 19 18
60 55 55 59 59 56 59 59 57 63 60 60 64 65 67 71 75 81 92 93 95 98 99 99 99 98 92 81 70 63 62 61 57 45 41 37 35 28 23 21 20 19 19
68 67 70 67 65 68 68 64 63 66 65 63 69 71 72 76 82 87 92 96 89 88 88 87 80 70 63 57 55 58 59 53 42 40 36 36 34 28 24 20 20 19 18
69 69 74 76 79 80 80 76 73 73 68 69 73 75 80 84 86 86 81 77 76 80 76 70 67 58 55 54 55 57 53 53 50 46 40 35 30 26 22 21 20 18 16
72 77 78 79 78 82 86 84 79 76 75 75 76 78 78 81 84 81 81 77 72 72 68 67 65 60 59 62 63 60 59 57 50 38 34 32 29 25 22 21 20 17 17